| time (UTC) | temp C | wind direction | speed KPH | gust KPH | rain 1hr cm | rain 24hr cm | rain mn cm | humidity % | barometer mb |
| 20260507211530 | 21 | 288 | 8.0 | 24.1 | 0.00 | 0.00 | 0.00 | 27 | 1014.8 |
| 20260507210028 | 21 | 226 | 14.5 | 27.4 | 0.00 | 0.00 | 0.00 | 30 | 1014.9 |
| 20260507204525 | 21 | 254 | 12.9 | 25.7 | 0.00 | 0.00 | 0.00 | 30 | 1014.9 |
| 20260507203027 | 20 | 317 | 6.4 | 14.5 | 0.00 | 0.00 | 0.00 | 36 | 1015.0 |
| 20260507201528 | 19 | 38 | 3.2 | 12.9 | 0.00 | 0.00 | 0.00 | 35 | 1015.1 |
| 20260507200023 | 20 | 44 | 11.3 | 17.7 | 0.00 | 0.00 | 0.00 | 37 | 1015.1 |
| 20260507193025 | 19 | 46 | 1.6 | 17.7 | 0.00 | 0.00 | 0.00 | 39 | 1015.2 |
| 20260507191516 | 18 | 192 | 3.2 | 11.3 | 0.00 | 0.00 | 0.00 | 36 | 1015.1 |
| 20260507184512 | 17 | 106 | 6.4 | 19.3 | 0.00 | 0.00 | 0.00 | 38 | 1015.3 |
| 20260507183013 | 18 | 122 | 11.3 | 16.1 | 0.00 | 0.00 | 0.00 | 40 | 1015.3 |
| 20260507181525 | 17 | 328 | 4.8 | 16.1 | 0.00 | 0.00 | 0.00 | 37 | 1015.4 |
| 20260507180023 | 18 | 42 | 3.2 | 11.3 | 0.00 | 0.00 | 0.00 | 38 | 1015.7 |
| 20260507174529 | 18 | 302 | 9.7 | 16.1 | 0.00 | 0.00 | 0.00 | 38 | 1015.8 |
| 20260507171526 | 18 | 219 | 3.2 | 16.1 | 0.00 | 0.00 | 0.00 | 40 | 1016.1 |
| 20260507170017 | 17 | 344 | 4.8 | 9.7 | 0.00 | 0.00 | 0.00 | 43 | 1016.0 |
| 20260507164528 | 16 | 342 | 1.6 | 12.9 | 0.00 | 0.00 | 0.00 | 42 | 1016.0 |
| 20260507163012 | 16 | 350 | 6.4 | 11.3 | 0.00 | 0.00 | 0.00 | 41 | 1016.2 |
| 20260507161527 | 15 | 107 | 1.6 | 6.4 | 0.00 | 0.00 | 0.00 | 41 | 1016.2 |
| 20260507160033 | 15 | 66 | 3.2 | 12.9 | 0.00 | 0.00 | 0.00 | 42 | 1016.3 |
| 20260507154526 | 15 | 61 | 8.0 | 16.1 | 0.00 | 0.00 | 0.00 | 43 | 1016.3 |
| 20260507153022 | 15 | 107 | 8.0 | 19.3 | 0.00 | 0.00 | 0.00 | 48 | 1016.5 |
| 20260507150021 | 15 | 57 | 11.3 | 19.3 | 0.00 | 0.00 | 0.00 | 44 | 1016.3 |
| 20260507144528 | 15 | 69 | 9.7 | 17.7 | 0.00 | 0.00 | 0.00 | 44 | 1016.3 |
| 20260507141537 | 16 | 24 | 3.2 | 4.8 | 0.00 | 0.00 | 0.00 | 39 | 1015.8 |
| 20260507134504 | 14 | 215 | 3.2 | 17.7 | 0.00 | 0.00 | 0.00 | 43 | 1015.5 |
| 20260507133004 | 14 | 226 | 6.4 | 12.9 | 0.00 | 0.00 | 0.00 | 46 | 1015.4 |
| 20260507131508 | 13 | 189 | 3.2 | 3.2 | 0.00 | 0.00 | 0.00 | 50 | 1015.2 |
| 20260507124504 | 12 | 178 | 0.0 | 4.8 | 0.00 | 0.00 | 0.00 | 52 | 1014.9 |
| 20260507123003 | 12 | 125 | 0.0 | 4.8 | 0.00 | 0.00 | 0.00 | 53 | 1014.9 |
| 20260507121504 | 12 | 205 | 0.0 | 12.9 | 0.00 | 0.00 | 0.00 | 54 | 1015.0 |
| 20260507120006 | 12 | 163 | 3.2 | 11.3 | 0.00 | 0.00 | 0.00 | 56 | 1015.0 |
| 20260507111506 | 12 | 133 | 4.8 | 12.9 | 0.00 | 0.00 | 0.00 | 55 | 1014.8 |
| 20260507110006 | 12 | 129 | 6.4 | 11.3 | 0.00 | 0.00 | 0.00 | 57 | 1014.8 |
| 20260507104505 | 12 | 148 | 11.3 | 14.5 | 0.00 | 0.00 | 0.00 | 58 | 1014.7 |
| 20260507103003 | 12 | 125 | 4.8 | 9.7 | 0.00 | 0.00 | 0.00 | 56 | 1014.7 |
| 20260507101503 | 12 | 130 | 9.7 | 11.3 | 0.00 | 0.00 | 0.00 | 57 | 1014.7 |
| 20260507100007 | 13 | 119 | 1.6 | 4.8 | 0.00 | 0.00 | 0.00 | 54 | 1014.5 |
| 20260507094506 | 13 | 165 | 1.6 | 3.2 | 0.00 | 0.00 | 0.00 | 52 | 1014.5 |
| 20260507093009 | 13 | 98 | 1.6 | 3.2 | 0.00 | 0.00 | 0.00 | 52 | 1014.5 |
| 20260507091511 | 14 | 145 | 3.2 | 8.0 | 0.00 | 0.00 | 0.00 | 49 | 1014.3 |
| 20260507090007 | 15 | 192 | 0.0 | 6.4 | 0.00 | 0.00 | 0.00 | 45 | 1014.3 |
| 20260507084504 | 15 | 145 | 3.2 | 8.0 | 0.00 | 0.00 | 0.00 | 45 | 1014.3 |
| 20260507083004 | 15 | 167 | 0.0 | 8.0 | 0.00 | 0.00 | 0.00 | 45 | 1014.4 |
| 20260507081509 | 15 | 153 | 1.6 | 11.3 | 0.00 | 0.00 | 0.00 | 45 | 1014.4 |
| 20260507080007 | 16 | 318 | 1.6 | 4.8 | 0.00 | 0.00 | 0.00 | 43 | 1014.3 |
| 20260507074512 | 16 | 196 | 3.2 | 22.5 | 0.00 | 0.00 | 0.00 | 42 | 1014.2 |
| 20260507073009 | 15 | 272 | 3.2 | 9.7 | 0.00 | 0.00 | 0.00 | 46 | 1014.4 |
| 20260507071520 | 15 | 138 | 1.6 | 6.4 | 0.00 | 0.00 | 0.00 | 46 | 1014.4 |
| 20260507070013 | 16 | 244 | 1.6 | 3.2 | 0.00 | 0.00 | 0.00 | 44 | 1014.4 |
| 20260507064507 | 16 | 25 | 0.0 | 6.4 | 0.00 | 0.00 | 0.00 | 44 | 1014.4 |
| 20260507063016 | 16 | 41 | 0.0 | 3.2 | 0.00 | 0.00 | 0.00 | 43 | 1014.4 |
| 20260507061514 | 16 | 254 | 1.6 | 4.8 | 0.00 | 0.00 | 0.00 | 42 | 1014.5 |
| 20260507060011 | 17 | 21 | 0.0 | 11.3 | 0.00 | 0.00 | 0.00 | 40 | 1014.5 |
| 20260507054511 | 17 | 328 | 0.0 | 11.3 | 0.00 | 0.00 | 0.00 | 40 | 1014.6 |
| 20260507053013 | 17 | 236 | 0.0 | 6.4 | 0.00 | 0.00 | 0.00 | 41 | 1014.6 |
| 20260507050032 | 17 | 321 | 8.0 | 17.7 | 0.00 | 0.00 | 0.00 | 40 | 1014.4 |
| 20260507043017 | 17 | 236 | 8.0 | 16.1 | 0.00 | 0.00 | 0.00 | 44 | 1014.1 |
| 20260507040019 | 17 | 215 | 1.6 | 6.4 | 0.00 | 0.00 | 0.00 | 44 | 1014.0 |
| 20260507034516 | 17 | 225 | 1.6 | 4.8 | 0.00 | 0.00 | 0.00 | 43 | 1013.8 |
| 20260507033021 | 17 | 296 | 1.6 | 6.4 | 0.00 | 0.00 | 0.00 | 43 | 1013.6 |
| 20260507031519 | 17 | 260 | 1.6 | 6.4 | 0.00 | 0.00 | 0.00 | 44 | 1013.5 |
| 20260507030027 | 18 | 182 | 0.0 | 3.2 | 0.00 | 0.00 | 0.00 | 41 | 1013.4 |
| 20260507024523 | 18 | 229 | 0.0 | 4.8 | 0.00 | 0.00 | 0.00 | 40 | 1013.6 |
| 20260507023019 | 18 | 242 | 0.0 | 19.3 | 0.00 | 0.00 | 0.00 | 38 | 1013.6 |
| 20260507021522 | 19 | 277 | 6.4 | 14.5 | 0.00 | 0.00 | 0.00 | 35 | 1013.7 |
| 20260507020020 | 19 | 234 | 8.0 | 14.5 | 0.00 | 0.00 | 0.00 | 36 | 1013.7 |
| 20260507013025 | 20 | 244 | 6.4 | 14.5 | 0.00 | 0.00 | 0.00 | 34 | 1013.5 |
| 20260507011522 | 21 | 238 | 8.0 | 22.5 | 0.00 | 0.00 | 0.00 | 32 | 1013.5 |
| 20260507010021 | 21 | 251 | 3.2 | 20.9 | 0.00 | 0.00 | 0.00 | 31 | 1013.6 |
| 20260507003025 | 22 | 226 | 11.3 | 25.7 | 0.00 | 0.00 | 0.00 | 30 | 1013.7 |
| 20260507001526 | 22 | 235 | 11.3 | 20.9 | 0.00 | 0.00 | 0.00 | 32 | 1013.6 |
| 20260507000023 | 22 | 244 | 16.1 | 24.1 | 0.00 | 0.00 | 0.00 | 32 | 1013.6 |
| 20260506234527 | 22 | 313 | 11.3 | 27.4 | 0.00 | 0.00 | 0.00 | 31 | 1013.6 |
| 20260506233026 | 23 | 253 | 12.9 | 27.4 | 0.00 | 0.00 | 0.00 | 30 | 1013.6 |
| 20260506230027 | 22 | 255 | 17.7 | 24.1 | 0.00 | 0.00 | 0.00 | 32 | 1013.8 |
| 20260506224521 | 22 | 271 | 9.7 | 19.3 | 0.00 | 0.00 | 0.00 | 31 | 1014.0 |
| 20260506223019 | 21 | 224 | 16.1 | 27.4 | 0.00 | 0.00 | 0.00 | 33 | 1014.1 |
| 20260506221517 | 22 | 256 | 6.4 | 22.5 | 0.00 | 0.00 | 0.00 | 35 | 1014.2 |
| 20260506220017 | 21 | 244 | 12.9 | 20.9 | 0.00 | 0.00 | 0.00 | 36 | 1014.4 |
| 20260506213009 | 22 | 262 | 9.7 | 32.2 | 0.00 | 0.00 | 0.00 | 34 | 1015.0 |